Terminal Aerodrome Forecast
Issued by NWS Omaha/Valley, NE

Home | Current Version | Previous Version | Graphics & Text | Print | Product List | Glossary On
Versions: 1 2 3 4 5 6 7 8 9 10 11 12 13 14 15 16 17 18 19 20 21 22 23 24 25 26 27 28 29 30 31 32 33 34
000
FTUS43 KOAX 130520
TAFOFK
TAF
KOFK 130520Z 1306/1406 19004KT P6SM SKC
      TEMPO 1310/1313 4SM BR
     FM131600 18015G22KT P6SM SCT035
     FM140000 18008KT P6SM SKC=

USA.gov is the U.S. government's official web portal to all federal, state and local government web resources and services.